This is the latest recevied weather packets stored in our database for station/object N4QD-13. If no packets are shown the sender has not sent any weather packets the latest 10 day(s).
| Time | Temp. | Humidity | Pressure | Rain* | Wind** | Luminosity | Snow |
|---|---|---|---|---|---|---|---|
| 1777665061 | 19.44° C | 42% | 1011.9 hPa | 0 mm | - | 773 W/m² | - |
| 1777664757 | 18.89° C | 44% | 1012.1 hPa | 0 mm | - | 766 W/m² | - |
| 1777664453 | 18.89° C | 44% | 1011.8 hPa | 0 mm | - | 799 W/m² | - |
| 1777664151 | 18.89° C | 44% | 1011.9 hPa | 0 mm | - | 792 W/m² | - |
| 1777663849 | 18.33° C | 45% | 1011.7 hPa | 0 mm | - | 828 W/m² | - |
| 1777663545 | 18.89° C | 44% | 1012.1 hPa | 0 mm | - | 822 W/m² | - |
| 1777663243 | 18.89° C | 45% | 1012.1 hPa | 0 mm | - | 835 W/m² | - |
| 1777662940 | 18.89° C | 46% | 1012.2 hPa | 0 mm | - | 825 W/m² | - |
| 1777662638 | 18.33° C | 47% | 1012.5 hPa | 0 mm | - | 813 W/m² | - |
| 1777662333 | 18.33° C | 46% | 1012.6 hPa | 0 mm | - | 843 W/m² | - |
| 1777662029 | 19.44° C | 44% | 1012.6 hPa | 0 mm | - | 817 W/m² | - |
| 1777661725 | 18.89° C | 47% | 1012.8 hPa | 0 mm | - | 792 W/m² | - |
| 1777661421 | 18.89° C | 47% | 1012.9 hPa | 0 mm | - | 788 W/m² | - |
| 1777661118 | 17.78° C | 46% | 1012.9 hPa | 0 mm | - | 776 W/m² | - |
| 1777660812 | 18.33° C | 47% | 1013.1 hPa | 0 mm | - | 769 W/m² | - |
| 1777660510 | 18.33° C | 45% | 1013.4 hPa | 0 mm | - | 757 W/m² | - |
| 1777660206 | 18.33° C | 49% | 1013.2 hPa | 0 mm | - | 742 W/m² | - |
| 1777659903 | 17.78° C | 48% | 1013.3 hPa | 0 mm | - | 757 W/m² | - |
| 1777659599 | 18.33° C | 47% | 1013.3 hPa | 0 mm | - | 745 W/m² | - |
| 1777659297 | 17.78° C | 49% | 1013.7 hPa | 0 mm | - | 737 W/m² | - |
| 1777658993 | 17.78° C | 47% | 1013.5 hPa | 0 mm | - | 695 W/m² | - |
| 1777658691 | 17.22° C | 47% | 1013.9 hPa | 0 mm | - | 710 W/m² | - |
| 1777658386 | 17.78° C | 48% | 1013.7 hPa | 0 mm | - | 732 W/m² | - |
| 1777658084 | 17.78° C | 46% | 1013.7 hPa | 0 mm | - | 740 W/m² | - |
| 1777657780 | 17.78° C | 46% | 1013.9 hPa | 0 mm | - | 745 W/m² | - |
* Rain latest hour (hover to see other rain measurements)
** Current wind speed in m/s (hover to see current wind gust speed)